When you browse on this site, cookies collect data to enhance your experience and personalize the content and advertising you see.
Visit our Privacy Policy to learn more. By continuing to use the site, you agree to this use of cookies and data.
  • In Latvia
  • List of Countries
  • For 7 days
  • Water Temperature
  • Weather Map
  • Weather Widgets
  • user-avatar
    Login

    Hourly Weather Buffalo

    Today, 15 September, Sunday

    Time Temperature Precipitation Wind Pressure Humidity
    00:00 +17°C° 0 mm 3 mps 749 mmHg 87%
    01:00 +17°C° 0 mm 2 mps 750 mmHg 88%
    02:00 +17°C° 0 mm 2 mps 749 mmHg 89%
    03:00 +16°C° 0 mm 2 mps 749 mmHg 89%
    04:00 +16°C° 0 mm 2 mps 749 mmHg 90%
    05:00 +16°C° 0 mm 2 mps 749 mmHg 90%
    06:00 +17°C° 0 mm 2 mps 750 mmHg 89%
    07:00 +17°C° 0 mm 2 mps 750 mmHg 88%
    08:00 +18°C° 0 mm 2 mps 750 mmHg 82%
    09:00 +20°C° 0 mm 2 mps 749 mmHg 76%
    10:00 +21°C° 0 mm 2 mps 749 mmHg 70%
    11:00 +22°C° 0 mm 3 mps 749 mmHg 68%
    12:00 +24°C° 0 mm 3 mps 749 mmHg 65%
    13:00 +23°C° 0 mm 4 mps 749 mmHg 62%
    14:00 +22°C° 1.5 mm 3 mps 748 mmHg 72%
    15:00 +20°C° 1.5 mm 2 mps 748 mmHg 81%
    16:00 +18°C° 1.5 mm 2 mps 748 mmHg 91%
    17:00 +19°C° 0.1 mm 2 mps 748 mmHg 91%
    18:00 +20°C° 0.1 mm 1 mps 747 mmHg 90%
    19:00 +20°C° 0.1 mm 1 mps 747 mmHg 90%
    20:00 +20°C° 0 mm 1 mps 747 mmHg 90%
    21:00 +20°C° 0 mm 1 mps 747 mmHg 90%
    22:00 +20°C° 0 mm 1 mps 747 mmHg 90%
    23:00 +20°C° 0.5 mm 1 mps 747 mmHg 90%

    Tomorrow, 16 September, Monday

    Time Temperature Precipitation Wind Pressure Humidity
    00:00 +20°C° 0.5 mm 1 mps 746 mmHg 90%
    01:00 +20°C° 0.5 mm 1 mps 746 mmHg 90%
    02:00 +20°C° 0.5 mm 1 mps 746 mmHg 91%
    03:00 +19°C° 0.5 mm 1 mps 746 mmHg 92%
    04:00 +19°C° 0.5 mm 1 mps 746 mmHg 93%
    05:00 +19°C° 0.4 mm 1 mps 746 mmHg 93%
    06:00 +20°C° 0.4 mm 1 mps 746 mmHg 93%
    07:00 +20°C° 0.4 mm 1 mps 747 mmHg 93%
    08:00 +20°C° 0.1 mm 1 mps 747 mmHg 92%
    09:00 +19°C° 0.1 mm 2 mps 747 mmHg 92%
    10:00 +20°C° 0.1 mm 3 mps 747 mmHg 92%
    11:00 +20°C° 0 mm 3 mps 747 mmHg 88%
    12:00 +21°C° 0 mm 3 mps 747 mmHg 84%
    13:00 +21°C° 0 mm 4 mps 747 mmHg 80%
    14:00 +22°C° 0 mm 4 mps 747 mmHg 77%
    15:00 +22°C° 0 mm 4 mps 747 mmHg 73%
    16:00 +22°C° 0 mm 4 mps 747 mmHg 70%
    17:00 +21°C° 0 mm 4 mps 747 mmHg 70%
    18:00 +19°C° 0 mm 3 mps 747 mmHg 71%
    19:00 +18°C° 0 mm 3 mps 748 mmHg 71%
    20:00 +17°C° 0 mm 3 mps 748 mmHg 70%
    21:00 +16°C° 0 mm 3 mps 748 mmHg 69%
    22:00 +16°C° 0 mm 3 mps 749 mmHg 68%
    23:00 +15°C° 0 mm 2 mps 749 mmHg 68%

    Day after tomorrow, 17 September, Tuesday

    Time Temperature Precipitation Wind Pressure Humidity
    00:00 +15°C° 0 mm 2 mps 749 mmHg 67%
    01:00 +14°C° 0 mm 2 mps 749 mmHg 67%
    02:00 +14°C° 0 mm 2 mps 749 mmHg 67%
    03:00 +14°C° 0 mm 2 mps 750 mmHg 68%
    04:00 +13°C° 0 mm 2 mps 750 mmHg 69%
    05:00 +13°C° 0 mm 2 mps 750 mmHg 69%
    06:00 +13°C° 0 mm 2 mps 750 mmHg 69%
    07:00 +13°C° 0 mm 2 mps 751 mmHg 69%
    08:00 +15°C° 0 mm 2 mps 751 mmHg 65%
    09:00 +17°C° 0 mm 3 mps 751 mmHg 60%
    10:00 +19°C° 0 mm 3 mps 751 mmHg 55%
    11:00 +20°C° 0 mm 3 mps 751 mmHg 53%
    12:00 +21°C° 0 mm 3 mps 751 mmHg 51%
    13:00 +22°C° 0 mm 3 mps 751 mmHg 48%
    14:00 +22°C° 0 mm 3 mps 750 mmHg 50%
    15:00 +22°C° 0 mm 3 mps 750 mmHg 51%
    16:00 +22°C° 0 mm 3 mps 750 mmHg 53%
    17:00 +20°C° 0 mm 3 mps 750 mmHg 58%
    18:00 +18°C° 0 mm 3 mps 750 mmHg 62%
    19:00 +17°C° 0 mm 3 mps 750 mmHg 67%
    20:00 +16°C° 0 mm 3 mps 750 mmHg 65%
    21:00 +14°C° 0 mm 3 mps 750 mmHg 63%
    22:00 +15°C° 0 mm 2 mps 751 mmHg 61%
    23:00 +15°C° 0 mm 2 mps 751 mmHg 58%

    18 September, Wednesday

    Time Temperature Precipitation Wind Pressure Humidity
    00:00 +14°C° 0 mm 2 mps 751 mmHg 56%
    01:00 +14°C° 0 mm 2 mps 751 mmHg 54%
    02:00 +14°C° 0 mm 2 mps 751 mmHg 57%
    03:00 +14°C° 0 mm 2 mps 751 mmHg 61%
    04:00 +14°C° 0 mm 2 mps 751 mmHg 64%
    05:00 +14°C° 0 mm 2 mps 751 mmHg 65%
    06:00 +14°C° 0 mm 2 mps 751 mmHg 66%
    07:00 +14°C° 0 mm 2 mps 751 mmHg 67%
    08:00 +16°C° 0 mm 2 mps 751 mmHg 62%
    09:00 +18°C° 0 mm 2 mps 751 mmHg 57%
    10:00 +21°C° 0 mm 3 mps 751 mmHg 52%
    11:00 +22°C° 0 mm 3 mps 751 mmHg 50%
    12:00 +24°C° 0 mm 2 mps 751 mmHg 47%
    13:00 +25°C° 0 mm 2 mps 751 mmHg 44%
    14:00 +25°C° 0 mm 2 mps 751 mmHg 47%
    15:00 +25°C° 0 mm 2 mps 751 mmHg 49%
    16:00 +25°C° 0 mm 3 mps 751 mmHg 52%
    17:00 +22°C° 0 mm 3 mps 750 mmHg 57%
    18:00 +20°C° 0 mm 3 mps 750 mmHg 62%
    19:00 +19°C° 0 mm 3 mps 750 mmHg 68%
    20:00 +18°C° 0 mm 3 mps 751 mmHg 67%
    21:00 +17°C° 0 mm 3 mps 751 mmHg 67%
    22:00 +17°C° 0 mm 3 mps 751 mmHg 67%
    23:00 +17°C° 0 mm 3 mps 751 mmHg 67%

    19 September, Thursday

    Time Temperature Precipitation Wind Pressure Humidity
    00:00 +17°C° 0 mm 3 mps 751 mmHg 67%
    01:00 +16°C° 0 mm 3 mps 751 mmHg 68%
    02:00 +16°C° 0 mm 3 mps 750 mmHg 68%
    03:00 +16°C° 0 mm 3 mps 750 mmHg 69%
    04:00 +14°C° 0 mm 3 mps 750 mmHg 70%
    05:00 +16°C° 0 mm 3 mps 750 mmHg 70%
    06:00 +16°C° 0 mm 3 mps 750 mmHg 70%
    07:00 +16°C° 0 mm 3 mps 750 mmHg 70%
    08:00 +18°C° 0 mm 3 mps 751 mmHg 65%
    09:00 +20°C° 0 mm 3 mps 751 mmHg 60%
    10:00 +22°C° 0 mm 4 mps 751 mmHg 55%
    11:00 +23°C° 0 mm 4 mps 751 mmHg 53%
    12:00 +25°C° 0 mm 4 mps 750 mmHg 50%
    13:00 +26°C° 0 mm 4 mps 750 mmHg 47%
    14:00 +26°C° 0 mm 3 mps 750 mmHg 49%
    15:00 +26°C° 0 mm 3 mps 749 mmHg 51%
    16:00 +26°C° 0 mm 3 mps 749 mmHg 53%
    17:00 +25°C° 0 mm 2 mps 749 mmHg 58%
    18:00 +23°C° 0 mm 2 mps 749 mmHg 63%
    19:00 +21°C° 0 mm 2 mps 749 mmHg 68%
    20:00 +20°C° 0 mm 3 mps 749 mmHg 67%
    21:00 +20°C° 0 mm 3 mps 750 mmHg 65%
    22:00 +20°C° 0 mm 4 mps 750 mmHg 63%
    23:00 +19°C° 0 mm 4 mps 750 mmHg 65%

    20 September, Friday

    Time Temperature Precipitation Wind Pressure Humidity
    00:00 +19°C° 0 mm 4 mps 749 mmHg 67%
    01:00 +19°C° 0 mm 4 mps 749 mmHg 68%
    02:00 +19°C° 0 mm 4 mps 749 mmHg 70%
    03:00 +18°C° 0 mm 3 mps 749 mmHg 72%
    04:00 +18°C° 0 mm 3 mps 750 mmHg 73%
    05:00 +18°C° 0 mm 3 mps 750 mmHg 74%
    06:00 +18°C° 0 mm 3 mps 750 mmHg 75%
    07:00 +18°C° 0 mm 3 mps 750 mmHg 76%
    08:00 +20°C° 0 mm 3 mps 750 mmHg 72%
    09:00 +21°C° 0 mm 3 mps 750 mmHg 67%
    10:00 +24°C° 0 mm 3 mps 751 mmHg 63%
    11:00 +25°C° 0 mm 3 mps 750 mmHg 61%
    12:00 +26°C° 0 mm 3 mps 750 mmHg 60%
    13:00 +27°C° 0 mm 3 mps 750 mmHg 58%
    14:00 +26°C° 0 mm 3 mps 750 mmHg 59%
    15:00 +26°C° 0 mm 3 mps 749 mmHg 60%
    16:00 +26°C° 0 mm 2 mps 749 mmHg 61%
    17:00 +25°C° 0 mm 2 mps 749 mmHg 66%
    18:00 +23°C° 0 mm 2 mps 749 mmHg 70%
    19:00 +21°C° 0 mm 2 mps 749 mmHg 74%
    20:00 +21°C° 0 mm 2 mps 749 mmHg 76%
    21:00 +21°C° 0 mm 2 mps 750 mmHg 77%
    22:00 +20°C° 0 mm 2 mps 750 mmHg 79%
    23:00 +20°C° 0 mm 2 mps 750 mmHg 81%
    Show more